STARLINK-32364, 61622

Orbit data source: Space-Track

STARLINK-32364, 61622 is a payload satellite owned by SpaceX/Seattle (US) in LEO that was launched on Wed, 23 Oct 2024 UTC via an FALCON 9 launch vehicle from the Air Force Eastern Test Range (AFETR). Payload-class satellites include a variety of spacecraft equipped with specific instruments for various scientific and technological missions. These include communications satellites like Starlink; space stations such as the ISS; scientific satellites like the Hubble; Earth observation satellites from companies like Planet Labs, Umbra, and HawkEye 360; GPS; miniature CubeSats for education and research; and military/defense satellites.

Loading next visibility...
Identifier
61622, 2024-191B
Orbit
LEO
Country
Flag of USUS
Related business
Manufacturer
SpaceX/Seattle
Mission
Operational Commercial Communications
Bus & Motor
STARLINK V2M, Unknown motor
Mass
730 kg wet, ~700 kg dry
Launch date (UTC)
2024-10-23 (2 years ago)
Launch vehicle
FALCON 9
Launch site
Air Force Eastern Test Range (AFETR)
Object type
Payload
Rocket body
Debris
Shape & HBR
Box + 2 Pan, 17.7 m
Radar Cross Section
33.884 m², Large (>1 m²)

Expand to show TLE details & history
Last TLE update: 7 hours ago

TLE from 7 hours ago
0 STARLINK-32364
1 61622U 24191B   26122.93290687  .00000789  00000-0  38193-4 0  9993
2 61622  42.9993 208.0410 0001440 284.2962  75.7730 15.27571525 85835
Epoch: 2026-05-02T22:23Z
TLE epoch observation values (Epoch: 2026-05-02T22:23:23.153Z)
Latitude
Longitude
11.35082°
Altitude
482.607 km
Speed
7.626 km/s
True Right ascension
13h 52m 09s
True Declination
0° 00' 00"
Sunlit
Object was in full shadow at epoch
Visualization orbit readout
Latitude
Unknown
Longitude
Unknown
Altitude
Unknown
Speed
Unknown
Apparent Right ascension
Unknown
Apparent Declination
Unknown
Sunlit
N/A
Visualization observer readout
Local Sidereal Time
12:37:21
Azimuth
Unknown
Elevation
Unknown
Doppler factor
Unknown
Orbital elements
Apogee altitude
486.008 km
Perigee altitude
484.031 km
Semi-major axis
6,863.157 km
Eccentricity
0.00014
Inclination
42.9993°
RAAN
208.041°
Arg. of periapsis
284.2962°
True anomaly
75.789°
Mean anomaly
75.773°
Eccentric anomaly
75.781°
Mean motion
3.81731 °/min
Orbital period
94.31 mins
BSTAR
0.000038193
Loading maneuver chart data...
Computing Atmospheric mass density...
Loading historical data...
Loading historical data...
Loading historical data...
Loading historical data...
Loading historical data...
Loading historical data...
Loading historical data...

Documentation

Showing up to 5 results
|